Location: Im Fang
(46.6019°N, 7.2397°E)
Time: 11:24:42
(UTC+00:00)

Cosmos 1420 Rocket - Pass Details

Date: 08 December 2019
Orbit: 754 x 781 km, 74.0° (Epoch: 19 January)

Event Time Altitude Azimuth Distance (km) Brightness Sun altitude
Rises 05:31:28 0° 210° (SSW) 3,211 7.1 -14.8°
Reaches altitude 10° 05:33:51 10° 214° (SW) 2,286 6.3 -14.4°
Maximum altitude 05:38:59 61° 295° (WNW) 859 4.0 -13.6°
Drops below altitude 10° 05:44:08 10° 16° (NNE) 2,292 6.4 -12.8°
Sets 05:46:32 0° 20° (NNE) 3,220 7.2 -12.4°
